TimePDT,TemperatureF,Dew PointF,Humidity,Sea Level PressureIn,VisibilityMPH,Wind Direction,Wind SpeedMPH,Gust SpeedMPH,PrecipitationIn,Events,Conditions,WindDirDegrees,DateUTC
12:01 AM,41.0,37.4,87,29.83,1.8,SW,5.8,-,0.03,Rain,Heavy Rain,220,2012-10-21 07:01:00
12:15 AM,39.2,37.4,93,29.82,3.0,ESE,3.5,-,0.08,Rain,Light Rain,110,2012-10-21 07:15:00
12:30 AM,39.2,37.4,93,29.82,8.0,Calm,Calm,-,0.08,,Mostly Cloudy,0,2012-10-21 07:30:00
12:53 AM,39.9,37.0,89,29.82,8.0,ESE,3.5,-,0.08,,Mostly Cloudy,120,2012-10-21 07:53:00
1:53 AM,39.0,37.0,93,29.82,7.0,Calm,Calm,-,0.00,Rain,Light Rain,0,2012-10-21 08:53:00
2:10 AM,39.2,37.4,93,29.82,3.0,SE,3.5,-,0.04,Rain,Rain,130,2012-10-21 09:10:00
2:21 AM,39.2,37.4,93,29.81,2.5,ESE,3.5,-,0.11,Rain,Heavy Rain,110,2012-10-21 09:21:00
2:31 AM,39.2,37.4,93,29.81,4.0,Calm,Calm,-,0.13,Rain,Light Rain,0,2012-10-21 09:31:00
2:53 AM,39.9,37.0,89,29.82,3.0,East,3.5,-,0.19,Rain,Rain,90,2012-10-21 09:53:00
3:53 AM,37.9,36.0,93,29.81,10.0,East,4.6,-,0.04,,Mostly Cloudy,90,2012-10-21 10:53:00
4:30 AM,37.4,35.6,93,29.81,10.0,East,3.5,-,N/A,,Scattered Clouds,80,2012-10-21 11:30:00
4:53 AM,37.9,35.1,89,29.81,9.0,East,5.8,-,N/A,,Mostly Cloudy,90,2012-10-21 11:53:00
5:53 AM,35.1,33.1,92,29.81,10.0,Calm,Calm,-,N/A,,Clear,0,2012-10-21 12:53:00
6:53 AM,35.1,33.1,92,29.82,10.0,East,3.5,-,N/A,,Clear,80,2012-10-21 13:53:00
7:53 AM,35.1,32.0,89,29.82,9.0,ENE,5.8,-,N/A,,Partly Cloudy,70,2012-10-21 14:53:00
8:53 AM,37.9,35.1,89,29.83,9.0,ENE,4.6,-,N/A,,Clear,70,2012-10-21 15:53:00
9:53 AM,43.0,37.9,82,29.82,10.0,East,4.6,-,N/A,,Clear,90,2012-10-21 16:53:00
10:53 AM,46.9,39.9,77,29.82,10.0,SE,6.9,-,N/A,,Clear,130,2012-10-21 17:53:00
11:53 AM,46.9,39.9,77,29.82,10.0,Calm,Calm,-,N/A,,Overcast,0,2012-10-21 18:53:00
12:14 PM,44.6,39.2,81,29.82,2.5,South,5.8,-,0.01,Rain,Rain,190,2012-10-21 19:14:00
12:24 PM,44.6,39.2,81,29.83,1.8,South,10.4,19.6,0.04,Rain,Rain,190,2012-10-21 19:24:00
12:41 PM,44.6,39.2,81,29.82,3.0,SSE,8.1,-,0.11,Rain,Light Rain,150,2012-10-21 19:41:00
12:53 PM,44.1,39.9,85,29.82,6.0,SE,4.6,-,0.11,Rain,Light Rain,130,2012-10-21 19:53:00
1:08 PM,46.4,42.8,87,29.81,4.0,SE,6.9,-,0.01,Rain,Light Rain,140,2012-10-21 20:08:00
1:17 PM,46.4,42.8,87,29.81,6.0,SSE,8.1,-,N/A,Rain,Light Rain,150,2012-10-21 20:17:00
1:53 PM,46.9,43.0,86,29.81,9.0,South,8.1,-,0.01,,Overcast,170,2012-10-21 20:53:00
2:35 PM,48.2,41.0,76,29.79,8.0,SSE,8.1,-,N/A,,Mostly Cloudy,150,2012-10-21 21:35:00
2:53 PM,48.9,42.1,77,29.79,8.0,SE,6.9,-,N/A,,Mostly Cloudy,140,2012-10-21 21:53:00
3:26 PM,48.2,39.2,71,29.78,9.0,SSE,8.1,-,N/A,,Scattered Clouds,160,2012-10-21 22:26:00
3:53 PM,48.9,41.0,74,29.79,9.0,SE,5.8,-,N/A,,Partly Cloudy,140,2012-10-21 22:53:00
4:53 PM,48.9,39.0,69,29.79,9.0,Variable,4.6,-,N/A,,Partly Cloudy,0,2012-10-21 23:53:00
5:53 PM,45.0,39.0,80,29.79,8.0,SE,3.5,-,N/A,,Partly Cloudy,140,2012-10-22 00:53:00
6:53 PM,42.1,37.9,85,29.79,10.0,East,3.5,-,N/A,,Clear,100,2012-10-22 01:53:00
7:53 PM,42.1,37.9,85,29.79,10.0,East,5.8,-,N/A,,Clear,80,2012-10-22 02:53:00
8:53 PM,39.9,37.0,89,29.78,9.0,ENE,5.8,-,N/A,,Clear,70,2012-10-22 03:53:00
9:53 PM,39.9,36.0,86,29.78,10.0,East,5.8,-,N/A,,Partly Cloudy,90,2012-10-22 04:53:00
10:53 PM,39.0,36.0,89,29.76,10.0,ENE,4.6,-,N/A,,Scattered Clouds,70,2012-10-22 05:53:00
11:53 PM,39.0,35.1,86,29.74,10.0,East,3.5,-,N/A,,Clear,100,2012-10-22 06:53:00